DLH613 UBBB-EDDF

Flight info

Callsign DLH613
Flight time N/A
Altitude 32000
Route RASAM N199 LUSAL N319 ADEKI DCT BADIR DCT LAGAS DCT FOQUS DCT ROLIN DCT OLDUD UL746 ODERO DCT OPT DCT MOPUG DCT SASAL DCT SUBEN Q162 SPESA SPESA5B
Aircraft A320/M-SDE3FGHIRWY/LB1

Departure

Time 2026-05-06 07:56
Airport Heydar Aliyev International Airport (UBBB)

Arrival

Time N/A
Airport Frankfurt Main Airport (EDDF)
Time Latitude Longitude Altitude Speed Heading
2026-05-06 07:44 40.46680 50.05322 24 ft 0 kts 230°
2026-05-06 07:45 40.46688 50.05335 25 ft 3 kts 230°
2026-05-06 07:45 40.46701 50.05355 25 ft 3 kts 230°
2026-05-06 07:45 40.46714 50.05375 25 ft 3 kts 230°
2026-05-06 07:45 40.46727 50.05395 25 ft 3 kts 230°
2026-05-06 07:46 40.46740 50.05416 25 ft 3 kts 230°
2026-05-06 07:46 40.46745 50.05424 25 ft 2 kts 230°
2026-05-06 07:48 40.46740 50.05418 24 ft 1 kts 197°
2026-05-06 07:48 40.46735 50.05421 24 ft 1 kts 154°
2026-05-06 07:49 40.46725 50.05429 24 ft 3 kts 146°
2026-05-06 07:49 40.46706 50.05447 24 ft 4 kts 146°
2026-05-06 07:49 40.46674 50.05473 24 ft 6 kts 151°
2026-05-06 07:49 40.46628 50.05508 24 ft 9 kts 148°
2026-05-06 07:50 40.46574 50.05556 24 ft 11 kts 146°
2026-05-06 07:50 40.46515 50.05617 24 ft 4 kts 137°
2026-05-06 07:50 40.46511 50.05651 24 ft 5 kts 91°
2026-05-06 07:50 40.46512 50.05704 24 ft 7 kts 88°
2026-05-06 07:51 40.46514 50.05782 24 ft 10 kts 87°
2026-05-06 07:51 40.46518 50.05883 24 ft 12 kts 87°
2026-05-06 07:51 40.46550 50.05960 24 ft 10 kts 26°
2026-05-06 07:51 40.46584 50.06014 24 ft 7 kts 97°
2026-05-06 07:52 40.46570 50.06085 24 ft 9 kts 129°
2026-05-06 07:52 40.46509 50.06096 24 ft 10 kts 182°
2026-05-06 07:52 40.46430 50.06096 24 ft 12 kts 180°
2026-05-06 07:52 40.46337 50.06097 24 ft 14 kts 179°
2026-05-06 07:53 40.46228 50.06098 24 ft 17 kts 179°
2026-05-06 07:53 40.46106 50.06101 24 ft 19 kts 179°
2026-05-06 07:53 40.45967 50.06104 24 ft 21 kts 179°
2026-05-06 07:53 40.45814 50.06104 24 ft 23 kts 180°
2026-05-06 07:54 40.45703 50.06113 24 ft 9 kts 171°
2026-05-06 07:54 40.45652 50.06158 24 ft 10 kts 110°
2026-05-06 07:54 40.45653 50.06251 24 ft 11 kts 86°
2026-05-06 07:54 40.45697 50.06325 24 ft 11 kts
2026-05-06 07:55 40.45781 50.06321 24 ft 14 kts 359°
2026-05-06 07:55 40.46060 50.06317 24 ft 75 kts 359°
2026-05-06 07:55 40.46804 50.06306 25 ft 136 kts 359°
2026-05-06 07:55 40.47896 50.06286 183 ft 165 kts 360°
2026-05-06 07:56 40.49023 50.06278 861 ft 160 kts 355°
2026-05-06 07:56 40.50099 50.05999 1586 ft 155 kts 346°
2026-05-06 07:56 40.51146 50.05652 2092 ft 158 kts 349°
2026-05-06 07:56 40.52275 50.05354 2369 ft 171 kts 354°
2026-05-06 07:57 40.53469 50.05116 2755 ft 177 kts 354°
2026-05-06 07:57 40.54697 50.04883 3134 ft 184 kts 356°
2026-05-06 07:57 40.55974 50.04671 3640 ft 187 kts 355°
2026-05-06 07:57 40.57326 50.04349 4070 ft 210 kts 349°
2026-05-06 07:58 40.58793 50.03914 4601 ft 226 kts 347°
2026-05-06 07:58 40.60302 50.03109 4994 ft 244 kts 322°
2026-05-06 07:58 40.61361 50.01324 5958 ft 252 kts 292°
2026-05-06 07:58 40.61652 49.99095 7605 ft 243 kts 273°
2026-05-06 07:59 40.61627 49.96882 9088 ft 237 kts 269°
2026-05-06 07:59 40.61586 49.94793 10436 ft 226 kts 268°
2026-05-06 07:59 40.61592 49.92658 11397 ft 240 kts 268°
2026-05-06 07:59 40.61629 49.90361 12077 ft 262 kts 267°
2026-05-06 08:00 40.61673 49.87949 12894 ft 263 kts 266°
2026-05-06 08:00 40.61710 49.85550 13886 ft 260 kts 265°
2026-05-06 08:00 40.61743 49.83145 14740 ft 268 kts 265°
2026-05-06 08:00 40.61774 49.80694 15824 ft 264 kts 265°
2026-05-06 08:01 40.61818 49.78385 17322 ft 239 kts 263°
2026-05-06 08:01 40.61854 49.76349 18402 ft 222 kts 262°
2026-05-06 08:01 40.61878 49.74215 18386 ft 243 kts 262°
2026-05-06 08:01 40.61875 49.71854 18217 ft 270 kts 262°
2026-05-06 08:02 40.61831 49.69312 18309 ft 286 kts 262°
2026-05-06 08:02 40.61761 49.66630 18443 ft 302 kts 262°
2026-05-06 08:02 40.61701 49.63797 18590 ft 317 kts 262°
2026-05-06 08:02 40.61665 49.60824 18739 ft 332 kts 263°
2026-05-06 08:03 40.61644 49.57735 18884 ft 345 kts 263°
2026-05-06 08:03 40.61626 49.54517 19094 ft 356 kts 264°
2026-05-06 08:03 40.61603 49.51247 19559 ft 360 kts 264°
2026-05-06 08:03 40.61574 49.47935 20064 ft 363 kts 263°
2026-05-06 08:04 40.61540 49.44606 20546 ft 365 kts 263°
2026-05-06 08:04 40.61502 49.41254 21003 ft 368 kts 263°
2026-05-06 08:04 40.61462 49.37876 21429 ft 371 kts 263°
2026-05-06 08:04 40.61423 49.34466 21840 ft 373 kts 263°
2026-05-06 08:05 40.61384 49.31040 22229 ft 376 kts 263°
2026-05-06 08:05 40.61345 49.27599 22599 ft 378 kts 263°
2026-05-06 08:05 40.61304 49.24130 22950 ft 380 kts 263°
2026-05-06 08:05 40.61259 49.20635 23289 ft 382 kts 263°
2026-05-06 08:06 40.61214 49.17120 23613 ft 384 kts 263°
2026-05-06 08:06 40.61157 49.13608 23912 ft 386 kts 263°
2026-05-06 08:06 40.61083 49.10059 24203 ft 388 kts 263°
2026-05-06 08:06 40.61004 49.06506 24485 ft 389 kts 263°
2026-05-06 08:07 40.60931 49.02935 24763 ft 391 kts 263°
2026-05-06 08:07 40.60863 48.99357 25039 ft 393 kts 263°